Location: Palmerston North
(40.3500°S, 175.6170°E)
Time: 20:45:17
(UTC+12:00)

Cosmos 1515 Rocket - Pass Details

Date: 24 January 2019
Orbit: 605 x 631 km, 82.5° (Epoch: 21 April)

Event Time Altitude Azimuth Distance (km) Brightness Sun altitude
Rises 21:24:00 0° 12° (NNE) 2,918 6.6 -7.5°
Reaches altitude 10° 21:26:18 10° 19° (NNE) 2,019 5.7 -7.9°
Maximum altitude 21:30:30 41° 88° (E) 932 4.1 -8.6°
Drops below altitude 10° 21:34:46 10° 158° (SSE) 2,044 6.4 -9.2°
Sets 21:37:07 0° 164° (SSE) 2,958 7.3 -9.6°
